カタログに戻る

FREGAT DEB

LostHEO
NORAD 46023·DEBRIS·🇷🇺 Russia

打ち上げ Jul 18, 2011 から Baikonur Cosmodrome

Loading…

次のパス (今後24時間)

TLE

古いSource: Space-Track

元期: Aug 30, 2020, 07:36 UTC

1 46023U 11037JA  20243.31679810  .00166920  00000-0  10262+0 0  9997
2 46023  51.3757 254.6196 2826932 126.3564 263.2547  9.24540295  3526

AllMySatでFREGAT DEBをリアルタイム追跡

Download on the App Store